Wind_Speed
100 100 100 100 100 101 101 102 103 104 105 106 107 108 109 110 111 112 113 114 115 116 117 117 118 119 119 120 120 121 121 121 121 121 121 121 121 121 120 120 120 120 120 121 121 121 122 122 122 123 123 123 124 124 125 125 125 126 126 126 127 127 127 128 128 128 128 128 128 127 127 126 125 124 122 121 119 118 116 115 113 112 110 109 107 106
100 101 101 101 101 102 102 103 103 104 105 106 108 109 110 111 113 114 115 116 116 117 118 119 120 120 121 122 122 122 122 123 123 123 123 123 122 122 122 122 122 123 123 123 123 124 124 125 125 125 126 126 126 127 127 127 128 128 128 129 129 129 129 130 130 129 129 128 127 126 125 124 123 121 120 119 118 116 115 114 112 111 110 108 107 105
100 100 101 101 101 101 102 103 103 103 104 105 107 108 110 111 113 114 116 117 118 119 120 121 121 122 123 123 124 124 124 125 125 125 125 125 125 125 125 125 125 125 125 126 126 126 127 127 127 128 128 128 129 129 129 130 130 130 130 131 131 131 130 130 129 129 128 127 125 124 123 122 120 119 118 117 116 115 114 113 111 110 109 108 106 105
100 100 100 100 100 100 101 102 102 102 103 104 105 106 108 110 112 114 115 117 118 120 121 122 123 124 124 125 126 126 127 127 127 127 127 127 127 127 127 127 128 128 128 128 128 129 129 129 130 130 130 131 131 131 131 131 131 131 131 131 131 130 129 128 127 126 125 124 123 121 120 119 118 117 116 115 114 113 112 111 110 109 108 106 105 104
100 100 100 100 100 100 100 101 101 101 102 102 103 104 105 106 108 110 112 114 116 118 120 122 123 124 125 126 127 128 128 128 129 129 129 129 129 129 129 129 130 130 130 130 130 130 131 131 131 131 131 132 132 131 131 131 131 130 130 129 128 127 126 125 124 123 122 121 120 119 118 117 116 115 113 113 112 111 110 109 108 107 106 106 105 104
100 100 100 100 100 100 101 101 101 101 101 101 101 102 103 104 105 106 108 110 112 114 116 118 120 122 123 125 126 127 127 128 128 129 129 130 130 130 130 130 130 130 131 131 131 131 131 131 131 131 131 130 130 130 129 128 128 127 126 126 125 124 123 122 121 120 119 118 117 116 115 114 113 112 111 110 110 109 108 107 107 106 105 105 104 104
101 100 100 100 101 101 101 101 101 101 101 101 102 102 102 103 103 104 105 106 108 109 111 113 115 117 118 120 121 122 123 124 125 126 127 127 128 128 128 129 129 129 129 129 129 128 128 128 128 128 127 127 127 126 125 125 124 124 123 122 122 121 120 119 119 118 117 116 115 114 113 112 111 110 110 109 108 107 107 106 106 105 105 104 104 103
101 101 101 101 101 102 102 102 102 102 102 102 102 103 103 103 103 104 104 105 106 107 108 109 110 112 113 114 115 116 117 118 120 121 121 122 123 124 124 124 125 125 125 125 125 125 124 124 124 124 124 123 123 122 122 121 121 120 120 119 119 118 117 117 116 115 115 114 113 112 112 111 110 109 108 108 107 106 106 105 105 105 104 104 103 103
102 102 102 101 102 102 102 103 103 103 102 103 103 103 104 104 104 105 105 106 106 107 107 108 109 110 110 111 111 112 113 113 114 115 116 117 118 119 119 120 120 121 121 121 121 121 121 121 121 121 120 120 120 119 119 118 118 117 117 116 116 115 115 114 114 113 113 112 111 111 110 109 109 108 107 107 106 106 105 105 105 104 104 103 103 102
102 102 102 102 102 102 102 103 103 103 103 103 103 104 104 105 105 106 106 107 107 107 108 108 109 109 110 110 110 111 111 111 112 113 113 114 115 116 116 117 118 118 119 119 119 119 119 119 119 118 118 118 117 117 116 115 115 114 114 113 113 112 112 112 111 111 110 110 110 109 109 108 108 108 107 107 106 106 105 105 104 104 103 103 102 102
103 103 103 103 103 102 103 103 103 104 104 104 104 104 105 105 106 106 107 108 109 109 109 109 109 110 110 111 111 111 111 111 112 112 113 114 114 115 115 116 116 117 117 117 118 118 118 117 117 117 116 116 115 114 114 113 112 112 111 110 110 109 109 109 108 108 108 108 108 107 107 107 107 107 107 106 106 105 105 104 104 103 103 102 102 101
104 103 103 103 103 103 103 103 103 104 104 104 105 105 106 106 106 107 108 109 109 110 110 110 110 111 111 111 112 112 112 112 113 113 114 114 114 115 115 115 116 116 116 116 117 116 116 116 115 115 114 114 113 112 111 111 110 109 108 108 107 107 106 106 106 106 105 106 106 106 106 106 106 106 106 106 105 105 104 104 103 103 102 101 101 100
104 104 104 104 104 104 104 104 104 104 104 104 105 106 106 107 107 107 108 108 109 109 110 111 111 112 112 112 112 112 112 113 113 114 114 114 115 115 115 115 115 115 115 115 115 115 114 114 113 113 112 111 111 110 109 108 108 107 106 106 105 105 104 104 104 104 104 104 104 104 105 105 105 105 105 105 105 104 104 103 102 102 101 100 100 99
105 104 104 104 104 104 104 104 104 104 105 105 106 106 107 107 108 108 108 109 109 110 110 111 111 112 113 113 113 112 112 113 113 114 114 114 114 114 114 114 114 114 114 114 114 113 113 112 111 111 110 109 109 108 107 107 106 105 105 105 104 104 104 103 103 103 103 103 103 103 103 103 104 104 104 103 103 103 102 102 101 100 100 99 98 97
105 104 104 104 104 104 104 104 104 105 105 106 106 107 107 108 108 108 108 109 109 110 110 111 112 112 113 113 113 113 112 113 113 113 114 114 114 114 113 113 113 113 113 113 112 112 111 110 109 109 108 108 107 107 106 106 105 105 104 104 104 104 103 103 103 103 103 102 102 102 102 102 102 102 102 102 101 101 101 100 100 99 98 97 97 96
104 104 104 104 104 105 105 105 105 105 106 106 107 107 107 108 108 108 108 109 110 110 110 111 112 113 113 113 113 112 112 112 112 113 113 114 113 113 112 112 112 112 111 111 110 109 109 108 108 107 107 106 106 105 105 105 104 104 104 104 104 103 103 103 103 103 102 102 102 102 101 101 101 100 100 99 99 99 98 98 98 97 97 97 96 96
104 104 104 104 104 105 105 105 105 106 106 106 107 107 107 108 108 108 109 109 110 110 111 111 112 113 114 114 113 112 111 111 112 112 112 113 113 112 111 111 110 110 109 109 108 108 107 107 106 106 106 105 105 105 105 104 104 104 104 103 103 103 103 103 102 102 102 102 101 101 100 100 99 98 98 97 97 97 96 96 96 96 97 97 97 97
103 103 104 104 105 105 105 106 106 106 106 106 107 107 107 108 108 108 109 109 110 110 111 111 111 112 113 113 113 112 111 111 111 111 111 112 111 110 109 109 108 108 108 107 106 106 106 105 105 105 105 105 105 104 104 104 104 103 103 103 103 102 102 102 102 102 101 101 100 100 99 98 98 97 96 96 96 96 96 96 96 97 97 97 98 98
103 103 103 104 105 105 105 106 106 106 106 106 106 107 107 108 108 108 109 109 110 110 110 111 111 111 112 112 112 111 110 110 110 110 110 110 110 109 108 107 107 106 106 106 105 105 105 105 105 105 105 104 104 104 104 103 103 103 102 102 102 102 101 101 101 100 100 99 99 98 98 97 97 96 96 96 96 96 96 96 97 98 98 99 99 100
103 103 104 104 104 105 105 105 105 105 106 106 106 107 107 108 108 109 109 109 109 109 110 110 110 111 111 111 111 110 109 109 108 108 108 108 108 107 106 105 105 105 105 105 104 104 104 104 104 104 104 104 103 103 103 102 102 102 102 101 101 101 100 100 99 99 98 98 97 97 96 96 96 96 96 96 97 97 97 98 99 99 100 101 101 102
103 104 104 104 104 105 105 105 105 105 105 105 106 106 107 107 108 108 108 109 109 109 109 109 110 110 110 110 110 109 108 107 106 106 106 106 106 105 104 104 104 104 104 104 104 104 104 104 104 103 103 103 103 102 102 102 102 101 101 100 99 99 98 98 97 97 96 96 96 96 96 96 97 97 98 98 99 99 100 100 101 102 102 103 104 104
103 104 104 103 103 104 104 104 105 105 105 105 105 106 106 107 107 108 108 108 108 108 108 109 109 109 109 109 108 107 106 105 104 103 103 104 104 104 103 103 103 103 104 103 103 103 103 103 103 103 102 102 102 102 101 101 100 100 99 98 98 97 97 96 96 96 96 96 96 96 97 97 98 99 99 100 101 101 102 103 103 104 105 105 106 106
103 103 103 103 103 103 103 104 104 104 104 105 105 105 106 106 106 107 107 107 107 107 108 108 108 107 107 107 106 105 104 103 102 101 101 102 103 103 102 102 102 102 103 102 102 102 102 102 102 102 101 101 101 101 100 100 99 98 97 97 96 96 96 96 96 96 96 96 97 98 98 99 100 100 101 102 103 104 104 105 106 106 107 107 108 108
102 102 102 102 102 102 103 103 103 104 104 104 104 105 105 105 105 105 106 106 106 106 106 106 106 106 105 105 104 103 102 101 100 99 99 100 101 101 101 101 101 101 101 101 101 101 101 101 101 101 100 100 100 99 99 98 97 97 96 96 96 96 96 96 96 97 97 98 98 99 100 101 102 103 103 104 105 106 107 107 108 108 109 109 110 111
101 101 101 101 101 102 102 102 102 103 103 103 103 104 104 104 104 104 104 104 104 104 104 104 104 104 103 103 102 102 101 99 98 98 98 99 100 100 100 99 99 100 100 100 100 100 100 100 100 99 99 98 98 98 97 97 96 96 96 96 96 96 96 97 97 98 99 100 100 101 102 103 104 105 105 106 107 108 108 109 110 110 111 111 111 112
100 100 100 101 101 101 101 102 102 102 102 102 102 102 102 103 103 103 103 103 102 102 102 102 101 101 101 101 101 100 99 98 97 97 97 98 99 99 99 98 98 98 98 99 98 98 98 98 98 98 97 97 97 97 96 96 96 96 96 97 97 97 98 98 99 100 101 102 102 103 104 105 106 107 107 108 109 110 110 111 111 111 112 111 111 111
99 100 100 100 100 100 100 101 101 101 101 101 101 101 101 101 101 101 101 101 100 100 99 99 99 99 99 99 99 99 98 98 97 96 96 96 97 98 98 97 96 97 97 97 97 97 97 97 97 96 96 96 96 96 97 97 97 97 98 98 98 99 99 100 101 102 103 103 104 105 106 107 108 108 109 110 110 111 111 111 111 111 110 110 109 109
99 99 99 99 99 99 99 99 99 99 99 99 99 99 99 99 99 99 99 99 98 97 97 97 97 98 98 98 98 98 98 97 96 95 95 95 96 96 96 96 95 95 95 95 95 96 96 96 96 96 96 96 97 97 97 98 98 99 99 100 100 101 101 102 103 103 104 105 106 107 107 108 109 110 110 111 111 111 110 110 109 108 107 106 105 104
98 98 98 98 98 98 98 98 98 98 98 97 97 97 97 97 97 97 96 96 96 96 96 96 96 96 97 97 97 97 97 96 95 94 93 94 94 95 95 94 94 94 94 94 94 95 95 95 96 96 96 97 97 98 98 99 99 100 101 101 102 102 103 103 104 105 105 106 107 108 109 109 110 110 110 110 110 109 108 107 105 104 102 101 100 99
97 97 97 97 97 96 96 96 96 96 96 96 95 95 95 94 94 94 94 94 94 94 95 95 95 95 95 96 96 96 96 95 93 92 92 92 93 93 93 93 93 93 92 93 93 94 95 96 96 96 97 98 98 99 100 100 101 101 102 103 103 104 104 105 105 106 107 107 108 108 109 109 109 109 108 107 106 105 104 102 101 99 98 97 96 95
96 95 95 95 95 94 94 94 94 94 94 93 93 93 92 92 92 92 92 92 92 93 93 94 94 94 94 94 94 94 94 93 92 91 91 91 92 92 92 92 92 92 92 92 93 94 96 96 97 97 98 98 99 100 101 101 102 103 103 104 104 105 105 106 106 107 107 108 108 108 108 107 106 105 104 103 101 100 99 98 97 96 95 94 93 92
94 94 93 93 93 92 92 92 92 91 91 91 91 91 90 90 91 91 91 91 91 91 92 92 92 92 92 92 92 92 92 92 91 90 89 90 90 91 91 91 92 92 92 92 93 94 96 97 98 98 99 99 100 101 102 102 103 103 104 105 105 106 106 107 107 107 108 107 107 106 105 103 102 100 99 98 97 96 95 94 93 92 92 91 90 89
92 91 91 91 90 90 90 89 89 89 89 89 89 89 89 89 89 89 90 90 90 90 90 90 90 90 90 90 90 90 90 90 89 88 88 88 89 90 90 91 92 93 93 93 93 94 95 97 98 99 99 100 101 102 103 103 104 104 104 105 105 106 107 107 107 107 107 106 104 103 101 99 97 96 95 94 93 92 91 91 90 89 88 87 86 86
90 89 89 88 88 88 87 87 87 87 87 87 87 88 88 88 88 88 88 88 88 88 88 88 88 89 89 89 89 88 88 88 87 87 87 88 88 89 90 91 92 93 94 94 95 95 96 97 98 99 100 101 102 102 103 104 104 104 105 105 106 106 107 107 106 105 104 103 101 99 97 95 94 93 92 91 90 89 88 87 86 85 84 83 82 82
87 87 86 86 86 85 85 85 85 86 86 86 86 86 87 87 87 87 87 87 87 87 87 87 87 87 87 87 87 87 87 87 87 86 86 87 88 89 90 91 92 93 94 95 96 96 97 97 98 99 100 101 102 102 103 104 104 105 105 105 106 106 106 105 104 103 101 99 97 95 94 92 91 90 89 88 88 86 85 84 83 81 80 79 78 77
84 84 84 84 83 84 84 84 84 84 85 85 85 85 85 85 85 85 85 85 85 85 85 85 85 85 85 85 85 86 86 86 86 86 87 87 88 89 91 92 93 94 95 95 96 96 97 98 99 99 100 101 101 102 103 104 104 105 105 105 105 105 104 103 101 99 97 95 94 93 91 90 89 88 87 86 85 84 82 81 80 78 77 75 74 74
82 82 82 82 82 82 83 83 83 83 83 83 83 83 83 83 83 83 83 83 84 84 84 84 84 84 84 84 84 84 85 86 86 87 87 88 89 90 91 92 93 94 95 95 96 97 97 98 99 99 100 100 101 102 103 104 104 105 105 104 104 103 101 100 98 96 94 93 91 90 89 88 87 86 84 83 82 81 79 78 77 75 74 73 71 71
80 80 80 80 81 81 81 81 81 81 81 81 81 81 81 81 82 82 82 82 82 82 82 82 83 83 83 83 84 84 85 85 86 87 88 88 89 90 91 92 93 94 95 95 96 97 97 98 98 99 99 100 101 102 103 104 104 104 103 102 101 100 98 97 95 93 92 90 89 88 87 86 84 83 82 80 79 78 77 76 74 73 72 70 69 68
78 79 79 79 79 79 80 80 80 79 79 79 79 80 80 80 80 80 80 80 80 81 81 82 82 83 83 84 84 84 85 86 87 87 88 89 89 90 91 92 93 94 94 95 96 96 97 97 98 98 99 100 101 102 103 103 103 102 101 99 98 97 95 94 92 91 89 88 87 86 84 83 81 80 79 78 76 75 74 73 72 71 69 68 67 65
77 77 78 78 78 77 78 78 78 78 78 78 78 78 78 78 78 78 79 79 79 80 81 81 82 83 84 84 85 85 86 86 87 88 88 89 90 90 91 92 93 94 94 95 95 96 96 97 97 98 99 100 101 101 102 101 100 99 98 96 95 94 93 92 90 89 87 86 84 83 81 80 79 77 76 75 74 73 72 71 70 68 67 66 64 63
76 76 76 76 76 76 76 76 76 76 76 76 76 76 76 76 77 77 78 79 79 80 81 81 83 84 84 85 85 86 86 87 87 88 89 89 90 90 91 91 92 93 93 94 95 95 96 96 97 98 99 99 100 100 100 99 98 96 94 93 92 91 90 89 88 86 84 83 81 80 79 77 76 75 74 73 71 70 69 68 67 66 65 63 62 60
74 74 74 74 74 74 74 74 74 74 74 74 74 75 75 76 76 77 78 79 80 80 81 82 83 84 85 86 86 86 87 87 88 88 89 89 90 90 90 91 91 92 92 93 94 94 95 96 97 98 98 98 98 97 97 96 94 93 91 90 89 88 87 86 85 83 82 80 78 77 75 74 73 72 71 70 69 68 67 66 65 63 62 61 59 58
72 72 72 72 72 73 73 72 72 72 72 73 73 74 75 75 76 78 79 80 81 81 82 83 84 85 86 87 87 87 88 88 88 88 89 89 89 90 90 90 91 91 92 92 93 94 95 96 97 97 97 96 95 94 93 92 91 90 89 88 86 85 85 83 82 80 79 77 76 74 73 71 70 69 68 68 67 66 65 63 62 61 59 58 57 56
70 71 71 71 71 71 71 71 71 71 72 73 73 74 75 76 77 78 79 80 81 82 83 84 84 85 86 87 87 88 88 89 89 89 89 89 89 90 90 90 90 91 91 92 93 94 95 95 95 95 94 93 92 91 90 89 88 87 86 85 84 82 81 80 78 77 75 74 73 71 70 68 67 66 66 65 64 63 62 61 60 58 57 56 55 54
69 69 69 69 69 70 70 70 71 71 72 73 74 75 76 77 78 79 80 81 82 83 83 84 85 85 86 86 87 88 88 89 89 89 89 89 89 89 89 90 90 90 91 92 93 94 94 94 94 93 91 90 89 88 87 86 85 85 84 82 81 79 78 76 75 73 72 71 70 68 67 66 64 64 63 62 62 61 60 59 58 56 55 54 54 53
68 68 68 68 69 69 70 70 71 72 72 73 74 75 76 77 79 80 80 81 82 83 84 84 84 85 86 86 86 87 88 88 89 89 89 89 89 89 89 89 90 91 91 92 93 93 93 92 91 89 88 87 86 85 84 83 82 82 80 79 77 76 74 73 71 70 68 67 66 65 64 62 62 61 60 60 59 59 58 57 56 55 54 53 53 52
67 67 67 68 68 69 70 70 71 72 73 74 75 76 77 78 79 80 81 82 82 83 83 83 84 84 85 85 86 86 87 88 88 88 88 89 89 89 89 90 90 91 92 92 92 92 91 89 87 86 85 84 83 83 82 81 79 78 77 75 74 73 71 70 68 67 65 64 63 61 60 59 58 58 57 57 57 56 56 55 54 53 52 52 52 51
66 67 67 68 69 69 70 71 72 73 74 75 76 77 78 79 80 80 81 82 82 82 83 83 83 83 84 84 85 85 86 86 87 87 87 88 88 88 89 90 91 91 92 92 91 90 89 87 85 83 82 81 80 80 79 78 76 75 73 72 70 69 68 67 65 64 62 61 60 59 57 56 55 55 54 54 54 54 53 53 52 51 50 50 50 50
66 67 68 68 69 70 71 72 73 74 75 76 77 78 78 79 79 80 81 81 81 81 82 82 82 83 83 84 84 84 85 85 85 86 86 87 87 88 89 90 91 91 91 91 90 88 86 85 83 81 79 78 77 76 75 74 73 72 70 69 67 66 65 64 63 62 60 59 58 57 55 54 53 52 52 51 51 51 51 50 49 49 48 48 48 48
67 67 68 69 70 71 72 72 74 75 76 77 77 78 79 79 79 79 80 80 80 80 81 81 81 82 82 83 83 84 84 84 84 85 85 86 87 88 89 89 90 90 90 89 87 86 84 83 81 79 77 75 73 72 71 71 70 69 68 67 65 64 62 61 61 60 59 57 56 55 54 53 52 51 50 49 49 49 48 48 47 46 45 45 45 45
67 68 69 70 71 71 72 73 74 75 76 77 77 78 78 78 79 79 79 79 79 79 80 80 80 81 82 82 82 83 83 83 83 84 84 85 86 87 88 88 88 88 87 86 85 84 83 82 80 79 76 73 71 69 67 66 66 65 65 64 63 62 60 59 59 58 57 56 55 54 53 52 51 50 49 48 47 47 47 46 45 45 44 43 43 43
Wind_Direction
274 274 274 274 275 275 275 275 275 275 276 276 277 277 278 278 278 279 279 279 279 280 280 280 280 280 281 281 281 282 282 282 283 283 283 283 284 284 284 285 285 286 286 286 287 287 287 287 288 288 288 288 288 288 288 288 288 288 289 289 289 289 289 289 289 290 290 290 290 290 290 290 290 291 291 291 290 290 290 290 290 290 290 289 289 288
275 274 274 274 274 274 274 274 274 274 274 274 275 275 275 276 276 277 277 278 278 278 279 279 280 280 281 281 281 282 282 283 283 283 283 284 284 285 285 285 286 286 286 287 287 287 287 287 287 287 287 287 287 287 287 287 287 287 288 288 288 288 288 289 289 289 289 289 289 290 290 290 290 290 290 290 290 290 290 290 289 289 289 288 288 288
275 275 275 275 275 275 274 274 274 274 274 274 274 274 274 274 274 275 275 276 276 277 277 278 278 279 279 280 281 281 281 282 282 283 283 284 284 284 285 285 285 286 286 286 286 286 286 286 286 286 286 286 286 286 286 287 287 287 287 287 287 288 288 288 288 288 288 289 289 289 289 289 289 289 289 289 289 289 289 289 289 288 288 288 288 287
276 276 276 275 275 275 275 275 275 275 274 274 274 274 274 274 274 274 274 274 275 275 276 276 277 277 278 279 279 280 280 281 281 282 282 283 283 284 284 284 285 285 285 285 285 285 285 286 286 286 286 286 286 286 286 286 286 286 287 287 287 287 287 287 288 288 288 288 288 288 288 289 289 289 289 289 288 288 288 288 288 288 288 287 287 287
276 276 276 276 276 276 276 275 275 275 275 275 275 275 275 275 275 274 275 275 275 275 275 276 276 276 277 277 278 279 279 280 280 281 282 282 283 283 283 284 284 284 284 285 285 285 285 285 285 285 285 285 286 286 286 286 286 286 286 287 287 287 287 287 287 288 288 288 288 288 288 288 288 288 288 288 288 288 288 287 287 287 287 287 287 287
276 276 276 276 276 276 276 276 276 276 276 276 276 276 276 276 276 276 276 276 276 276 276 276 276 277 277 277 278 278 279 279 280 280 281 281 282 282 283 283 283 284 284 284 284 285 285 285 285 285 285 285 286 286 286 286 286 286 286 287 287 287 287 287 287 288 288 288 288 288 288 288 288 288 288 288 287 287 287 287 287 287 287 287 287 286
276 276 276 276 276 276 276 277 277 277 277 277 277 277 277 277 277 277 277 277 277 277 277 277 277 277 277 278 278 279 279 279 280 280 281 281 282 282 283 283 283 284 284 284 284 285 285 285 285 285 286 286 286 286 286 286 286 287 287 287 287 287 287 287 288 288 288 288 288 288 288 288 288 288 288 287 287 287 287 287 287 287 287 287 286 286
276 276 276 276 276 276 277 277 277 277 277 277 278 278 278 278 278 278 278 278 278 278 278 278 278 279 279 279 279 280 280 280 281 281 281 282 282 283 283 283 284 284 284 285 285 285 285 286 286 286 286 286 286 286 287 287 287 287 287 287 287 287 288 288 288 288 288 288 288 288 288 288 288 288 287 287 287 287 287 287 287 287 286 286 286 286
276 276 276 276 276 277 277 277 277 277 277 278 278 278 278 279 279 279 279 279 279 279 279 279 279 280 280 280 280 281 281 281 282 282 282 283 283 283 284 284 284 285 285 285 286 286 286 286 286 287 287 287 287 287 287 287 287 287 287 287 287 287 288 288 288 288 288 288 288 288 288 288 288 287 287 287 287 287 287 287 286 286 286 286 286 285
275 276 276 276 276 277 277 277 277 277 278 278 278 278 279 279 279 279 279 279 279 279 280 280 280 280 281 281 281 282 282 282 282 283 283 283 284 284 284 285 285 285 286 286 286 287 287 287 287 287 287 287 287 287 287 287 287 287 287 287 287 287 287 287 287 287 287 287 287 287 287 287 287 287 287 287 287 287 287 286 286 286 286 286 285 285
275 276 276 276 277 277 277 277 278 278 278 279 279 279 279 279 279 279 280 280 280 280 280 281 281 281 281 282 282 282 283 283 283 283 284 284 284 285 285 285 286 286 286 287 287 287 287 287 287 287 287 287 287 287 287 287 287 287 287 287 287 287 287 287 287 287 287 287 287 287 287 287 287 287 287 287 287 287 286 286 286 286 286 285 285 285
275 276 276 276 277 277 277 278 278 278 279 279 279 279 279 279 279 279 280 280 280 281 281 281 282 282 282 282 283 283 283 284 284 284 285 285 285 285 286 286 286 287 287 287 287 287 287 288 288 288 288 288 288 288 287 287 287 287 287 287 287 287 286 286 286 286 286 286 286 287 287 287 287 287 287 287 286 286 286 286 286 285 285 285 285 284
275 276 276 277 277 277 278 278 278 279 279 279 279 279 279 279 279 279 280 280 280 281 281 282 282 282 283 283 283 283 284 284 285 285 285 286 286 286 287 287 287 287 287 287 288 288 288 288 288 288 288 288 288 288 288 287 287 287 287 287 287 287 287 287 286 286 286 286 286 286 286 286 286 286 286 286 286 286 286 286 285 285 285 285 284 284
275 276 276 277 277 277 278 278 279 279 279 279 279 279 279 279 280 280 280 280 281 281 281 282 282 283 283 283 283 284 284 285 285 286 286 286 287 287 287 288 288 288 288 288 288 288 288 288 288 288 288 288 288 288 288 288 288 288 288 287 287 287 287 287 287 287 287 287 287 286 286 286 286 286 286 286 286 286 286 285 285 285 284 284 284 283
276 276 277 277 277 278 278 278 278 279 279 279 279 279 279 280 280 280 281 281 281 281 282 282 282 283 283 283 284 284 285 285 286 286 286 287 287 288 288 288 288 288 288 288 288 288 289 289 289 289 288 288 288 288 288 288 288 288 288 288 288 288 288 288 288 287 287 287 287 287 286 286 286 286 286 286 285 285 285 285 284 284 284 283 283 282
276 277 277 277 278 278 278 278 278 278 279 279 279 280 280 280 281 281 281 281 282 282 282 282 283 283 283 284 284 285 285 286 286 287 287 287 288 288 288 288 288 289 289 289 289 289 289 289 289 289 289 289 289 289 289 289 289 289 289 289 289 289 289 288 288 288 288 288 287 287 287 286 286 286 285 285 285 285 284 284 284 283 283 283 282 282
276 277 277 277 278 278 278 278 278 278 279 279 280 280 280 281 281 281 282 282 282 282 282 283 283 283 284 284 285 286 286 286 287 287 287 288 288 288 289 289 289 289 289 289 289 289 289 289 289 289 289 289 289 289 289 289 289 289 289 289 289 289 289 289 289 288 288 288 288 287 287 287 286 286 285 285 285 284 284 283 283 283 282 282 282 281
276 277 277 277 277 278 278 278 278 279 279 279 280 280 281 281 281 281 282 282 282 282 283 283 283 284 284 285 286 286 287 287 288 288 288 288 288 289 289 289 289 289 289 289 289 289 289 289 289 289 289 289 289 289 289 289 289 289 289 289 289 289 289 289 289 288 288 288 288 287 287 287 286 286 285 285 284 284 283 283 283 282 282 282 281 281
276 277 277 277 277 277 278 278 278 279 279 280 280 281 281 281 281 282 282 282 282 283 283 284 284 284 285 285 286 287 288 288 288 288 289 289 289 289 289 289 289 289 289 289 289 289 289 289 289 289 289 289 289 289 289 289 289 289 289 289 289 289 289 289 289 288 288 288 288 287 287 287 286 286 285 285 284 284 283 283 283 282 282 282 281 281
276 276 276 277 277 277 278 278 279 279 280 280 281 281 281 282 282 282 282 283 283 283 284 284 285 285 286 286 287 287 288 288 288 289 289 289 289 289 289 289 289 289 289 289 289 290 290 290 290 290 290 290 290 290 290 290 289 289 289 289 289 289 289 289 288 288 288 288 287 287 287 286 286 286 285 285 285 284 284 283 283 283 282 282 281 281
276 276 276 277 277 278 278 279 279 280 280 281 281 281 282 282 282 283 283 283 284 284 284 285 285 286 286 287 287 288 288 288 289 289 289 289 289 289 289 289 289 290 290 290 290 290 290 290 290 290 290 290 290 290 290 290 290 289 289 289 289 289 289 288 288 288 288 287 287 287 287 287 286 286 286 286 285 285 284 284 283 283 282 282 282 281
276 276 277 277 277 278 279 279 280 280 281 281 281 282 282 282 283 283 283 284 284 285 285 285 286 286 287 287 287 288 288 288 289 289 289 289 289 289 289 290 290 290 290 290 290 290 290 290 290 290 290 290 290 290 290 290 290 289 289 289 289 289 288 288 288 288 288 288 288 287 287 287 287 287 286 286 286 285 285 284 284 283 283 282 282 281
276 277 277 277 278 278 279 280 280 281 281 281 282 282 282 283 283 283 284 284 285 285 286 286 287 287 287 288 288 288 288 288 289 289 289 289 289 289 290 290 290 290 290 290 290 290 290 290 290 290 290 290 290 290 290 290 290 289 289 289 289 289 289 289 289 289 288 288 288 288 288 288 287 287 287 286 286 286 285 285 284 284 283 283 282 282
276 277 277 278 278 279 280 280 281 281 281 282 282 282 282 283 283 284 284 285 285 286 286 287 287 287 288 288 288 288 288 289 289 289 289 289 289 290 290 290 290 290 290 290 290 290 290 290 290 290 290 290 290 290 290 290 290 290 290 289 289 289 289 289 289 289 289 289 289 289 289 288 288 288 287 287 287 286 286 285 285 284 284 283 283 282
277 277 278 279 279 280 280 280 281 281 281 282 282 283 283 283 284 284 285 285 286 286 286 287 287 288 288 288 288 288 289 289 289 289 290 290 290 290 290 290 290 290 290 290 290 290 290 290 290 290 290 290 290 290 290 290 290 290 290 290 290 290 290 290 290 290 290 290 290 289 289 289 289 288 288 288 287 287 286 286 285 285 284 284 283 283
278 278 279 279 280 280 280 281 281 281 282 282 283 283 284 284 284 285 285 286 286 286 287 287 287 288 288 288 288 289 289 289 290 290 290 290 290 290 290 290 290 290 290 290 291 290 290 290 290 290 291 291 291 291 291 291 291 291 291 291 291 291 291 291 291 291 291 291 290 290 290 290 289 289 289 288 288 287 287 286 286 285 284 284 283 283
278 279 279 280 280 280 281 281 281 282 282 283 283 283 284 284 285 285 286 286 287 287 287 288 288 288 288 289 289 289 289 290 290 290 290 291 290 290 290 291 291 291 291 291 291 291 291 291 291 291 291 291 291 291 292 292 292 292 292 292 292 292 292 292 292 292 291 291 291 291 291 290 290 289 289 288 288 287 287 286 286 285 284 284 283 282
279 279 280 280 280 280 281 281 282 282 283 283 284 284 284 285 285 286 286 287 287 287 288 288 288 288 289 289 289 290 290 290 290 291 291 291 291 291 291 291 291 291 291 291 291 291 291 291 292 292 292 292 292 292 292 292 292 292 292 292 292 292 292 292 292 292 292 292 291 291 291 290 290 290 289 288 288 287 287 286 286 285 284 284 283 282
279 279 280 280 280 281 281 282 282 283 283 284 284 284 285 285 286 286 286 287 287 288 288 288 288 289 289 289 290 290 290 290 291 291 291 291 291 291 291 291 291 291 291 292 292 292 292 292 292 293 293 293 293 293 293 293 293 293 293 293 293 293 293 293 293 293 292 292 292 291 291 291 290 290 289 289 288 288 287 286 286 285 285 284 283 283
279 279 280 280 281 281 282 282 283 283 284 284 284 285 285 286 286 286 287 287 287 288 288 288 289 289 289 290 290 290 290 291 291 291 292 291 291 291 291 291 292 292 292 292 292 293 293 293 293 293 293 293 293 293 293 293 293 293 294 294 294 294 293 293 293 293 293 292 292 291 291 291 290 290 289 289 289 288 287 287 286 286 285 284 284 283
279 280 280 281 281 282 282 283 283 284 284 285 285 285 286 286 286 286 287 287 288 288 288 289 289 289 289 290 290 290 290 291 291 292 292 291 291 291 292 292 292 292 292 293 293 293 293 293 293 294 294 294 294 294 294 294 294 294 294 294 294 294 294 294 294 293 293 292 292 292 291 291 291 290 290 289 289 288 288 287 287 286 286 285 285 284
280 280 280 281 281 282 282 283 284 284 284 285 285 285 286 286 286 287 287 288 288 288 288 289 289 289 290 290 290 290 290 291 291 291 292 292 292 292 292 292 293 293 293 293 293 293 293 294 294 294 294 294 294 294 294 294 294 295 295 295 295 295 295 294 294 294 294 293 293 292 292 291 291 291 290 290 289 289 288 288 287 287 286 286 285 284
280 280 281 281 282 282 283 283 284 284 285 285 285 286 286 287 287 287 288 288 288 288 289 289 289 289 290 290 290 290 290 291 291 291 292 292 292 293 293 293 293 293 294 294 294 293 293 294 294 294 294 294 295 295 295 295 295 295 295 295 295 295 295 295 295 295 294 294 294 293 293 292 292 291 291 290 290 289 288 288 287 287 286 286 285 284
280 281 281 282 282 283 283 284 284 285 285 285 286 286 287 287 287 288 288 288 289 289 289 289 289 290 290 290 290 290 290 291 291 292 292 293 293 293 293 293 294 294 294 294 294 294 294 294 294 295 295 295 295 295 296 296 296 296 296 296 296 296 296 296 296 295 295 295 294 294 294 293 293 292 292 291 290 290 289 288 287 287 286 285 285 284
281 281 282 282 283 283 284 284 284 285 285 286 286 287 287 288 288 288 288 289 289 289 289 289 289 289 290 290 290 291 291 291 292 292 293 293 293 294 294 294 294 294 294 294 294 295 295 295 295 295 296 296 296 296 296 297 297 297 297 297 297 297 297 297 296 296 296 296 295 295 295 294 294 293 292 292 291 290 289 289 288 287 286 285 285 284
281 282 282 283 283 284 284 284 285 285 286 286 287 287 287 288 288 288 288 289 289 289 289 289 289 289 290 290 291 291 292 292 293 293 293 294 294 294 294 294 294 294 295 295 295 295 296 296 296 296 296 297 297 297 297 298 298 298 298 298 298 298 298 298 297 297 297 297 296 296 295 295 294 294 293 292 292 291 290 289 288 288 287 286 285 284
281 282 282 283 283 284 284 285 285 286 286 286 287 287 287 288 288 288 288 289 289 289 289 289 290 290 290 291 291 292 292 293 293 294 294 294 294 294 294 295 295 295 295 296 296 296 296 297 297 297 297 298 298 298 298 299 299 299 299 299 299 299 299 298 298 298 298 297 297 297 296 296 295 295 294 293 292 292 291 290 289 288 288 287 286 284
282 282 283 283 283 284 284 285 285 286 286 287 287 287 288 288 288 288 288 289 289 289 290 290 290 291 291 292 292 293 293 293 294 294 294 295 295 295 295 295 295 296 296 296 297 297 297 298 298 298 298 299 299 299 300 300 300 300 300 300 300 300 299 299 299 299 298 298 298 297 297 296 296 295 295 294 293 293 292 291 290 289 288 287 286 285
282 282 283 283 284 284 285 285 286 286 286 287 287 287 288 288 288 289 289 289 290 290 291 291 292 292 292 293 293 293 294 294 294 295 295 295 295 295 296 296 296 296 297 297 298 298 298 299 299 299 300 300 300 301 301 301 301 301 301 301 300 300 300 299 299 299 299 299 298 298 298 297 297 296 296 295 294 294 293 292 291 290 289 288 287 286
282 283 283 284 284 285 285 286 286 286 287 287 288 288 288 289 289 289 290 290 291 291 292 292 293 293 293 294 294 294 294 295 295 295 295 296 296 296 296 297 297 297 298 298 299 299 299 300 300 300 301 301 302 302 302 302 302 301 301 301 301 300 300 300 300 300 300 299 299 299 298 298 298 297 297 296 295 294 293 293 292 291 290 289 288 287
283 283 284 284 285 285 285 286 286 287 287 288 288 289 289 290 290 291 291 291 292 292 292 293 293 293 294 294 294 295 295 295 296 296 296 296 296 297 297 297 298 298 299 299 300 300 300 301 301 301 302 302 302 302 302 302 302 302 301 301 301 301 301 301 301 301 300 300 300 300 299 299 298 298 297 296 296 295 294 293 292 292 291 290 289 288
283 283 284 285 285 285 286 286 287 287 288 289 289 290 290 291 291 292 292 292 293 293 293 293 294 294 294 295 295 295 296 296 296 296 297 297 297 298 298 299 299 299 300 300 301 301 301 302 302 303 303 303 303 303 303 302 302 302 302 302 302 302 301 301 301 301 301 301 300 300 300 300 299 298 298 297 296 295 295 294 293 292 292 291 290 288
283 284 284 285 286 286 287 287 288 289 289 290 290 291 291 292 292 292 293 293 293 293 294 294 294 295 295 296 296 297 297 297 297 297 298 298 298 299 299 300 300 300 301 301 302 302 302 303 303 303 304 304 304 303 303 303 303 302 302 302 302 302 302 302 302 302 302 301 301 301 300 300 299 299 298 297 297 296 295 294 294 293 292 291 290 289
284 285 285 286 287 287 288 288 289 290 291 291 291 292 292 292 293 293 293 293 293 294 294 295 295 296 296 297 297 298 298 298 298 298 299 299 300 300 301 301 301 301 302 302 302 303 303 304 304 304 304 304 304 304 303 303 303 303 303 303 303 303 303 302 302 302 302 302 301 301 301 300 300 299 298 298 297 296 296 295 294 294 293 292 291 289
285 286 286 287 288 289 289 290 290 291 291 292 292 292 292 293 293 293 293 294 294 294 295 295 296 297 297 298 298 298 299 299 299 300 300 300 301 301 302 302 302 302 303 303 304 304 304 305 305 305 305 305 305 304 304 304 304 304 304 304 304 303 303 303 303 302 302 302 302 301 301 301 300 300 299 298 298 297 296 296 295 295 294 293 292 290
286 287 288 288 289 290 290 291 291 292 292 292 292 292 293 293 293 293 294 294 295 295 296 296 297 297 298 298 299 299 299 300 300 301 301 302 302 302 303 303 303 304 304 304 305 305 305 305 306 306 306 305 305 305 305 305 304 304 304 304 304 304 303 303 303 302 302 302 302 301 301 301 300 300 299 299 298 298 297 297 297 296 295 294 293 291
287 288 289 289 290 290 291 291 292 292 292 292 292 293 293 293 293 294 294 295 295 296 296 297 298 298 298 299 299 300 300 300 301 302 302 303 303 303 304 304 305 305 305 306 306 306 306 306 306 306 306 306 306 306 305 305 305 305 304 304 304 304 303 303 303 302 302 302 301 301 301 301 300 300 300 299 299 298 298 298 297 297 296 295 294 293
288 289 289 290 290 291 291 291 292 292 292 292 293 293 293 293 294 294 295 295 296 297 297 298 298 299 299 300 300 300 301 301 302 302 303 303 304 304 305 305 306 306 307 307 307 307 307 307 307 307 307 307 306 306 306 306 305 305 305 305 304 304 304 303 303 303 303 302 302 302 301 301 301 300 300 300 299 299 298 298 297 296 296 295 294 293
289 289 290 290 291 291 291 292 292 292 292 293 293 293 293 294 294 295 295 296 297 297 298 299 299 300 300 300 300 301 301 302 302 303 304 304 305 305 306 307 307 307 308 308 308 308 308 307 307 307 307 307 307 307 307 306 306 306 306 305 305 305 304 304 304 304 304 303 303 303 302 302 301 301 301 300 300 299 298 298 297 296 295 294 293 292
289 290 290 290 291 291 291 292 292 292 293 293 293 294 294 294 295 296 296 297 298 298 299 299 300 300 301 301 301 302 302 303 303 304 304 305 306 306 307 308 308 308 308 309 308 308 308 308 308 308 308 308 308 308 307 307 307 307 307 306 306 306 306 305 305 305 305 305 305 304 304 303 303 302 302 301 300 300 299 298 297 296 295 294 293 291
289 290 290 290 291 291 292 292 292 293 293 293 294 294 295 295 296 296 297 298 298 299 300 300 301 301 301 301 302 302 303 304 304 305 306 306 307 308 308 308 309 309 309 309 309 309 309 309 309 309 309 308 308 308 308 308 308 308 308 307 307 307 307 307 307 307 307 306 306 306 306 305 304 304 303 302 302 301 300 299 298 297 296 295 293 291
Height
10586 10585 10586 10586 10586 10585 10584 10583 10583 10582 10580 10577 10577 10575 10574 10572 10570 10568 10566 10564 10563 10561 10559 10557 10555 10554 10552 10551 10550 10549 10547 10546 10545 10544 10542 10541 10540 10539 10538 10537 10535 10535 10534 10532 10531 10530 10529 10527 10526 10525 10524 10522 10521 10520 10519 10517 10515 10514 10513 10512 10510 10509 10508 10507 10505 10504 10503 10502 10500 10500 10499 10498 10497 10495 10495 10494 10492 10491 10490 10489 10488 10487 10487 10487 10486 10485
10579 10579 10579 10579 10579 10579 10577 10576 10576 10576 10575 10572 10571 10570 10569 10566 10564 10562 10560 10558 10556 10554 10552 10550 10548 10546 10545 10543 10542 10540 10539 10537 10536 10535 10534 10532 10531 10530 10529 10528 10527 10525 10525 10524 10522 10521 10520 10519 10517 10516 10515 10514 10512 10511 10510 10509 10507 10506 10505 10504 10502 10501 10500 10499 10497 10495 10494 10494 10492 10491 10490 10489 10487 10486 10485 10484 10483 10482 10480 10479 10478 10477 10477 10476 10475 10475
10572 10572 10571 10571 10572 10572 10570 10569 10569 10569 10569 10567 10565 10564 10563 10561 10559 10556 10554 10552 10550 10548 10546 10544 10542 10540 10537 10535 10534 10532 10531 10529 10528 10527 10525 10524 10523 10522 10521 10520 10519 10518 10517 10515 10514 10513 10512 10510 10509 10508 10507 10505 10504 10503 10502 10500 10499 10497 10496 10495 10494 10492 10491 10490 10489 10487 10486 10485 10484 10482 10481 10480 10479 10477 10476 10475 10474 10472 10471 10470 10469 10467 10467 10465 10465 10464
10565 10565 10564 10564 10564 10564 10563 10562 10562 10561 10561 10560 10559 10558 10557 10555 10553 10550 10549 10547 10545 10542 10539 10537 10535 10534 10531 10529 10527 10525 10524 10522 10520 10519 10519 10517 10516 10515 10514 10512 10511 10510 10509 10507 10506 10505 10504 10502 10501 10500 10498 10497 10495 10494 10492 10491 10490 10489 10487 10486 10485 10484 10482 10481 10479 10478 10477 10475 10474 10473 10472 10471 10470 10469 10467 10466 10465 10463 10462 10460 10459 10458 10457 10455 10454 10454
10559 10559 10557 10557 10557 10556 10555 10555 10555 10554 10553 10553 10552 10551 10550 10549 10547 10545 10543 10541 10539 10536 10534 10531 10529 10527 10525 10522 10520 10519 10517 10515 10514 10512 10511 10510 10509 10507 10505 10505 10504 10502 10501 10499 10498 10497 10495 10494 10492 10490 10489 10487 10486 10485 10483 10482 10480 10479 10478 10477 10475 10474 10472 10471 10470 10469 10467 10466 10465 10464 10462 10461 10460 10459 10457 10456 10455 10454 10452 10451 10449 10448 10447 10445 10444 10444
10552 10552 10552 10551 10550 10549 10547 10547 10547 10547 10546 10545 10544 10544 10543 10541 10540 10538 10536 10534 10532 10530 10527 10525 10523 10520 10518 10515 10514 10512 10510 10509 10507 10505 10504 10502 10501 10499 10498 10496 10495 10494 10492 10490 10489 10487 10486 10484 10483 10481 10480 10478 10476 10475 10474 10472 10470 10469 10468 10467 10465 10464 10463 10462 10460 10459 10457 10456 10455 10454 10452 10451 10450 10449 10447 10446 10445 10444 10442 10441 10439 10438 10437 10435 10434 10433
10545 10545 10545 10545 10544 10542 10541 10540 10540 10539 10539 10538 10537 10535 10535 10534 10532 10531 10529 10527 10525 10523 10520 10518 10516 10514 10511 10509 10507 10506 10504 10503 10501 10499 10497 10495 10493 10491 10489 10487 10486 10484 10483 10481 10479 10478 10476 10475 10474 10472 10470 10468 10467 10465 10464 10462 10461 10460 10459 10457 10455 10454 10453 10452 10450 10449 10447 10445 10444 10443 10442 10440 10439 10438 10437 10435 10434 10433 10432 10430 10429 10428 10427 10425 10424 10423
10539 10538 10538 10538 10537 10535 10534 10534 10533 10532 10532 10531 10529 10528 10527 10525 10524 10523 10522 10519 10517 10515 10514 10511 10508 10505 10504 10502 10501 10499 10498 10496 10494 10492 10490 10488 10485 10484 10481 10479 10477 10475 10473 10471 10470 10468 10467 10465 10464 10462 10460 10459 10457 10455 10454 10452 10451 10450 10449 10447 10446 10445 10443 10442 10440 10439 10437 10435 10434 10432 10431 10430 10429 10427 10426 10425 10424 10423 10422 10420 10419 10418 10417 10415 10414 10413
10533 10532 10530 10530 10530 10529 10527 10526 10525 10525 10526 10525 10523 10521 10520 10517 10515 10514 10513 10512 10509 10507 10506 10504 10501 10498 10496 10495 10494 10493 10491 10489 10487 10485 10484 10480 10478 10475 10474 10471 10469 10466 10464 10462 10460 10459 10457 10455 10454 10452 10450 10449 10447 10446 10445 10444 10442 10441 10440 10438 10437 10435 10434 10432 10431 10429 10427 10425 10424 10422 10421 10419 10418 10417 10415 10415 10414 10412 10411 10410 10409 10407 10407 10405 10404 10403
10527 10525 10524 10523 10523 10523 10522 10519 10517 10517 10518 10518 10516 10514 10513 10511 10509 10505 10504 10502 10500 10499 10499 10497 10494 10491 10489 10487 10486 10485 10485 10483 10480 10479 10477 10474 10471 10469 10466 10464 10461 10459 10456 10454 10451 10449 10447 10445 10444 10442 10440 10439 10438 10437 10435 10434 10433 10432 10430 10429 10428 10427 10425 10424 10422 10420 10419 10417 10415 10414 10412 10410 10408 10407 10405 10404 10403 10402 10401 10400 10399 10397 10396 10395 10394 10394
10519 10519 10518 10517 10515 10515 10515 10514 10511 10510 10510 10510 10508 10506 10505 10504 10502 10500 10497 10493 10491 10490 10490 10489 10487 10484 10482 10479 10477 10477 10477 10475 10473 10470 10469 10467 10464 10462 10459 10457 10454 10451 10449 10445 10443 10440 10439 10436 10434 10432 10431 10430 10428 10427 10426 10425 10424 10423 10422 10420 10419 10418 10417 10415 10414 10412 10410 10409 10407 10405 10403 10401 10399 10397 10395 10394 10392 10391 10390 10389 10388 10387 10386 10385 10384 10384
10513 10512 10512 10510 10509 10508 10507 10507 10505 10504 10504 10502 10500 10498 10495 10495 10495 10494 10491 10487 10484 10482 10482 10480 10478 10476 10474 10472 10470 10469 10468 10467 10465 10462 10460 10457 10455 10453 10451 10449 10446 10443 10440 10437 10435 10432 10430 10428 10425 10424 10422 10420 10419 10417 10416 10415 10414 10413 10412 10411 10410 10409 10408 10407 10405 10404 10402 10400 10399 10396 10394 10392 10390 10388 10386 10384 10382 10381 10380 10379 10378 10377 10376 10375 10374 10374
10506 10505 10505 10504 10502 10501 10500 10499 10499 10497 10496 10495 10493 10490 10487 10485 10485 10485 10484 10481 10478 10476 10475 10473 10470 10467 10465 10464 10464 10462 10460 10459 10457 10454 10452 10449 10446 10444 10442 10440 10437 10434 10432 10429 10426 10423 10421 10419 10417 10414 10412 10410 10409 10407 10406 10405 10404 10403 10402 10401 10400 10399 10398 10397 10395 10394 10393 10391 10389 10387 10385 10384 10381 10379 10377 10374 10372 10371 10370 10369 10367 10367 10366 10365 10364 10364
10499 10499 10499 10497 10495 10494 10494 10493 10492 10490 10488 10486 10485 10483 10480 10478 10477 10477 10475 10473 10470 10469 10469 10467 10463 10459 10456 10455 10455 10454 10454 10452 10449 10446 10444 10440 10437 10436 10435 10432 10429 10425 10422 10420 10417 10414 10412 10410 10409 10405 10403 10401 10400 10398 10396 10395 10394 10392 10392 10390 10389 10389 10387 10387 10385 10384 10383 10381 10380 10378 10376 10374 10372 10370 10367 10365 10364 10362 10360 10359 10357 10357 10355 10355 10354 10354
10493 10492 10492 10490 10489 10487 10487 10485 10484 10482 10480 10478 10477 10475 10473 10471 10470 10469 10468 10465 10463 10461 10460 10459 10455 10451 10448 10447 10446 10446 10446 10444 10442 10439 10435 10432 10429 10427 10427 10424 10420 10416 10414 10412 10409 10405 10403 10402 10400 10397 10394 10392 10390 10389 10387 10385 10384 10383 10382 10380 10379 10378 10377 10375 10374 10373 10372 10370 10369 10367 10366 10364 10362 10360 10359 10357 10355 10353 10351 10349 10348 10347 10345 10345 10344 10344
10486 10486 10485 10483 10481 10479 10479 10478 10477 10474 10472 10470 10469 10468 10466 10464 10462 10460 10460 10458 10455 10454 10452 10450 10447 10443 10439 10437 10437 10439 10439 10437 10434 10430 10428 10424 10420 10417 10417 10416 10412 10407 10404 10402 10400 10397 10394 10393 10390 10388 10385 10383 10381 10379 10378 10377 10375 10374 10372 10370 10369 10368 10366 10365 10364 10362 10361 10359 10358 10357 10355 10354 10352 10350 10349 10347 10345 10344 10342 10340 10339 10337 10336 10335 10334 10334
10480 10479 10478 10475 10474 10472 10470 10469 10469 10467 10465 10463 10462 10460 10459 10457 10455 10453 10452 10450 10448 10446 10444 10442 10440 10436 10432 10428 10427 10429 10431 10430 10427 10423 10420 10416 10412 10409 10408 10408 10404 10399 10395 10394 10392 10389 10387 10384 10382 10379 10377 10374 10372 10371 10369 10367 10366 10364 10363 10361 10360 10358 10357 10355 10354 10352 10350 10349 10347 10345 10344 10343 10342 10340 10339 10338 10336 10335 10333 10331 10329 10328 10326 10325 10324 10324
10472 10472 10470 10469 10466 10464 10462 10461 10460 10459 10457 10456 10455 10453 10451 10449 10448 10446 10444 10442 10440 10439 10436 10434 10432 10429 10426 10422 10419 10418 10420 10422 10419 10414 10411 10407 10403 10400 10399 10399 10395 10391 10387 10385 10383 10380 10379 10375 10373 10370 10368 10366 10364 10362 10360 10359 10357 10355 10354 10352 10350 10349 10347 10345 10344 10342 10340 10339 10337 10335 10334 10332 10331 10330 10329 10327 10326 10325 10324 10322 10320 10319 10317 10315 10314 10313
10464 10464 10463 10461 10459 10456 10455 10454 10452 10452 10450 10449 10447 10445 10444 10441 10439 10438 10437 10435 10433 10431 10429 10426 10424 10421 10419 10415 10412 10410 10412 10412 10410 10407 10402 10399 10394 10391 10390 10389 10387 10383 10379 10377 10374 10372 10370 10367 10364 10362 10359 10357 10355 10354 10352 10350 10348 10347 10345 10343 10342 10340 10338 10336 10334 10332 10330 10329 10327 10325 10324 10322 10321 10320 10319 10317 10316 10315 10313 10312 10310 10309 10307 10305 10304 10303
10457 10455 10455 10454 10452 10449 10447 10445 10445 10445 10444 10442 10440 10439 10436 10434 10432 10430 10428 10426 10425 10423 10421 10419 10416 10413 10410 10408 10405 10404 10404 10404 10402 10399 10395 10391 10387 10383 10380 10380 10378 10374 10370 10368 10365 10364 10362 10359 10355 10352 10351 10349 10347 10344 10342 10340 10339 10337 10335 10334 10332 10330 10329 10327 10325 10324 10322 10320 10318 10316 10314 10312 10311 10310 10308 10307 10305 10304 10303 10301 10300 10299 10297 10295 10294 10292
10449 10447 10446 10446 10445 10444 10440 10438 10438 10438 10437 10435 10434 10431 10429 10426 10424 10422 10420 10419 10417 10415 10413 10410 10408 10405 10403 10400 10397 10395 10395 10396 10395 10391 10387 10384 10379 10375 10373 10372 10370 10367 10362 10359 10357 10355 10353 10350 10346 10344 10342 10340 10338 10335 10334 10332 10330 10328 10327 10325 10323 10322 10320 10318 10316 10314 10312 10310 10309 10307 10305 10303 10301 10299 10298 10296 10294 10293 10292 10290 10289 10287 10286 10284 10283 10281
10442 10439 10438 10439 10439 10437 10434 10432 10431 10430 10430 10429 10426 10424 10421 10419 10417 10414 10412 10411 10409 10407 10404 10402 10399 10397 10395 10392 10390 10387 10387 10388 10387 10384 10380 10376 10371 10367 10365 10365 10362 10359 10354 10351 10349 10347 10344 10341 10338 10335 10333 10331 10329 10327 10324 10322 10320 10319 10317 10315 10314 10312 10310 10309 10307 10305 10303 10301 10299 10297 10295 10293 10291 10289 10287 10285 10284 10282 10280 10279 10277 10275 10274 10273 10271 10270
10435 10434 10432 10432 10432 10430 10429 10427 10425 10424 10422 10421 10419 10417 10414 10412 10410 10407 10405 10404 10402 10399 10397 10394 10392 10389 10387 10384 10382 10379 10379 10379 10379 10377 10374 10370 10364 10359 10357 10357 10355 10351 10346 10344 10341 10339 10335 10332 10329 10327 10325 10322 10320 10317 10315 10314 10312 10310 10309 10307 10305 10303 10301 10299 10297 10295 10294 10292 10289 10287 10285 10283 10281 10279 10277 10275 10272 10270 10269 10267 10265 10264 10262 10260 10259 10257
10430 10429 10427 10426 10425 10424 10422 10420 10419 10417 10415 10414 10412 10410 10407 10405 10404 10401 10399 10397 10394 10392 10389 10387 10384 10381 10378 10376 10374 10371 10370 10370 10370 10370 10366 10362 10357 10353 10350 10349 10347 10343 10339 10335 10334 10331 10327 10324 10320 10318 10317 10314 10311 10309 10306 10304 10302 10300 10299 10297 10295 10294 10292 10290 10288 10286 10284 10282 10279 10277 10275 10272 10270 10268 10265 10264 10261 10259 10257 10255 10253 10250 10249 10247 10245 10244
10424 10423 10421 10420 10419 10417 10415 10414 10412 10410 10409 10407 10404 10402 10400 10399 10396 10394 10392 10390 10388 10385 10382 10380 10377 10373 10370 10368 10365 10362 10361 10362 10362 10362 10359 10354 10350 10345 10342 10341 10339 10336 10331 10327 10325 10323 10320 10315 10312 10310 10308 10305 10302 10300 10297 10295 10294 10291 10290 10287 10285 10284 10282 10280 10278 10276 10274 10271 10269 10266 10264 10262 10259 10257 10254 10252 10249 10247 10244 10242 10240 10238 10235 10234 10232 10230
10418 10417 10415 10414 10412 10410 10409 10407 10405 10404 10402 10400 10398 10395 10394 10391 10389 10387 10384 10382 10380 10378 10375 10373 10369 10366 10363 10360 10357 10354 10352 10353 10354 10353 10351 10347 10342 10338 10334 10333 10332 10329 10324 10320 10317 10315 10312 10307 10304 10301 10299 10297 10294 10290 10289 10286 10284 10282 10280 10278 10276 10274 10272 10270 10268 10266 10264 10261 10258 10255 10253 10250 10247 10245 10242 10239 10237 10234 10232 10229 10227 10225 10222 10220 10218 10216
10412 10410 10409 10407 10405 10404 10402 10400 10399 10397 10395 10393 10391 10389 10387 10385 10382 10379 10376 10374 10372 10371 10369 10365 10362 10359 10356 10353 10350 10347 10345 10345 10345 10344 10343 10340 10335 10330 10326 10325 10324 10321 10317 10313 10309 10306 10303 10299 10295 10293 10290 10287 10284 10282 10279 10277 10275 10272 10270 10268 10266 10264 10262 10260 10259 10256 10253 10250 10247 10245 10242 10239 10235 10233 10230 10227 10224 10221 10219 10216 10214 10211 10209 10207 10205 10202
10405 10404 10402 10400 10399 10397 10395 10394 10392 10390 10389 10387 10385 10383 10380 10378 10375 10372 10369 10367 10365 10364 10360 10357 10355 10352 10349 10345 10342 10340 10338 10337 10337 10336 10335 10332 10327 10322 10319 10317 10315 10312 10309 10305 10302 10298 10294 10291 10287 10285 10282 10279 10275 10273 10270 10268 10265 10263 10261 10259 10256 10254 10252 10250 10249 10245 10243 10240 10237 10234 10230 10227 10224 10220 10217 10214 10211 10208 10205 10203 10200 10198 10196 10194 10192 10189
10398 10397 10395 10394 10392 10390 10389 10387 10385 10384 10382 10380 10378 10375 10374 10372 10369 10365 10362 10360 10359 10356 10353 10350 10348 10345 10342 10339 10336 10333 10330 10329 10329 10329 10327 10324 10319 10314 10311 10309 10307 10304 10302 10299 10294 10289 10285 10282 10280 10277 10274 10270 10267 10264 10262 10259 10256 10254 10252 10249 10247 10245 10242 10240 10238 10235 10232 10229 10226 10222 10219 10215 10212 10209 10205 10201 10198 10195 10192 10189 10187 10185 10184 10181 10179 10177
10392 10390 10389 10387 10385 10384 10382 10380 10379 10377 10375 10373 10371 10369 10367 10365 10362 10359 10357 10354 10352 10350 10346 10344 10341 10339 10336 10333 10330 10326 10323 10322 10322 10322 10320 10316 10311 10307 10304 10302 10298 10295 10294 10292 10287 10282 10277 10273 10271 10269 10266 10262 10259 10255 10252 10250 10247 10245 10242 10240 10237 10235 10232 10230 10227 10225 10221 10218 10215 10211 10207 10204 10200 10197 10193 10189 10185 10182 10179 10177 10175 10173 10171 10169 10167 10165
10385 10384 10382 10380 10379 10378 10376 10374 10372 10370 10368 10366 10364 10362 10360 10358 10355 10353 10350 10349 10346 10343 10340 10337 10334 10332 10330 10327 10324 10320 10315 10314 10314 10314 10313 10309 10304 10299 10297 10294 10290 10287 10285 10284 10281 10276 10270 10265 10262 10260 10258 10254 10250 10247 10244 10242 10239 10236 10233 10230 10227 10224 10222 10219 10216 10213 10209 10206 10202 10199 10195 10192 10189 10185 10182 10178 10174 10171 10168 10165 10164 10162 10160 10158 10156 10154
10378 10377 10375 10374 10373 10371 10370 10368 10365 10364 10362 10359 10357 10355 10353 10351 10349 10347 10344 10342 10339 10337 10334 10331 10328 10325 10323 10320 10318 10314 10310 10308 10307 10307 10305 10302 10297 10292 10290 10287 10283 10279 10276 10275 10273 10270 10265 10259 10254 10250 10249 10245 10242 10239 10235 10232 10230 10227 10225 10221 10218 10214 10211 10208 10204 10200 10197 10193 10189 10186 10183 10180 10177 10174 10170 10167 10164 10160 10158 10155 10153 10151 10149 10147 10145 10143
10372 10370 10369 10368 10366 10365 10363 10361 10359 10357 10355 10353 10350 10349 10346 10344 10342 10340 10337 10335 10333 10330 10327 10324 10321 10319 10316 10314 10311 10308 10305 10302 10300 10300 10298 10295 10290 10285 10282 10279 10275 10272 10268 10265 10264 10261 10258 10254 10249 10244 10240 10237 10234 10230 10227 10224 10220 10218 10215 10212 10208 10204 10200 10196 10192 10188 10184 10180 10177 10174 10170 10168 10165 10162 10159 10156 10154 10150 10148 10145 10143 10141 10139 10137 10135 10132
10365 10364 10363 10361 10360 10359 10357 10355 10353 10350 10349 10346 10344 10342 10340 10337 10335 10333 10330 10329 10326 10324 10321 10318 10315 10312 10309 10306 10304 10300 10298 10296 10294 10293 10291 10288 10284 10279 10275 10272 10268 10264 10261 10257 10255 10252 10249 10246 10242 10239 10234 10230 10225 10222 10219 10215 10212 10208 10205 10202 10198 10194 10189 10184 10180 10175 10172 10168 10165 10162 10159 10156 10154 10150 10147 10145 10142 10139 10137 10135 10132 10130 10129 10127 10125 10123
10359 10358 10357 10355 10354 10352 10350 10348 10346 10344 10342 10340 10338 10336 10334 10331 10329 10326 10324 10322 10319 10317 10314 10312 10309 10306 10304 10300 10297 10294 10290 10289 10287 10286 10284 10281 10277 10273 10269 10264 10261 10258 10254 10250 10247 10244 10240 10237 10234 10230 10227 10222 10217 10213 10209 10206 10202 10199 10195 10191 10187 10182 10177 10172 10168 10164 10160 10157 10154 10151 10148 10145 10142 10139 10136 10134 10130 10128 10125 10124 10122 10120 10119 10117 10116 10114
10354 10352 10350 10349 10347 10345 10344 10342 10340 10338 10336 10334 10332 10330 10328 10325 10322 10320 10317 10315 10312 10310 10307 10305 10302 10300 10297 10295 10292 10288 10284 10282 10280 10278 10276 10274 10270 10267 10262 10257 10254 10250 10247 10243 10239 10236 10233 10229 10225 10222 10219 10215 10210 10205 10200 10196 10192 10189 10184 10180 10175 10171 10165 10161 10157 10154 10150 10147 10144 10140 10137 10135 10132 10129 10125 10122 10120 10117 10115 10113 10111 10110 10109 10108 10107 10105
10348 10346 10344 10343 10341 10339 10337 10335 10334 10332 10330 10328 10326 10324 10322 10319 10317 10314 10312 10309 10307 10304 10301 10298 10295 10293 10290 10289 10286 10283 10279 10276 10274 10271 10269 10266 10263 10260 10255 10250 10246 10243 10240 10236 10232 10229 10225 10222 10218 10214 10210 10206 10202 10197 10192 10187 10182 10178 10174 10169 10164 10159 10154 10150 10147 10144 10141 10138 10134 10131 10127 10124 10121 10119 10115 10112 10110 10107 10105 10103 10101 10100 10099 10098 10097 10096
10342 10340 10339 10337 10335 10334 10332 10330 10328 10326 10324 10322 10320 10318 10315 10313 10310 10308 10305 10303 10300 10297 10294 10291 10288 10285 10283 10281 10279 10276 10274 10270 10267 10264 10262 10259 10256 10252 10249 10244 10239 10235 10232 10229 10225 10221 10217 10214 10210 10205 10201 10197 10193 10188 10184 10178 10173 10169 10164 10159 10154 10149 10144 10140 10137 10135 10132 10129 10125 10122 10118 10115 10112 10109 10106 10103 10100 10097 10095 10094 10092 10090 10089 10089 10088 10087
10336 10334 10332 10331 10329 10328 10326 10324 10322 10320 10319 10317 10314 10312 10310 10307 10304 10302 10299 10297 10294 10290 10288 10285 10282 10279 10275 10274 10271 10269 10267 10264 10261 10258 10255 10252 10249 10245 10241 10237 10232 10228 10225 10222 10218 10214 10210 10206 10202 10198 10194 10189 10184 10179 10174 10169 10164 10160 10155 10150 10145 10140 10135 10132 10129 10126 10123 10120 10116 10112 10109 10106 10103 10100 10097 10094 10092 10089 10087 10084 10083 10082 10080 10080 10079 10079
10330 10329 10327 10325 10324 10322 10320 10319 10317 10315 10313 10310 10309 10306 10304 10301 10298 10295 10293 10290 10287 10284 10281 10278 10275 10272 10269 10267 10264 10262 10259 10257 10254 10251 10248 10244 10241 10237 10234 10230 10225 10222 10217 10214 10210 10206 10202 10198 10194 10190 10185 10181 10177 10171 10165 10159 10155 10150 10147 10142 10137 10131 10127 10123 10120 10117 10114 10111 10107 10104 10100 10097 10095 10092 10089 10085 10083 10080 10079 10077 10075 10074 10072 10072 10071 10070
10324 10323 10321 10320 10318 10317 10315 10313 10311 10309 10307 10305 10302 10300 10297 10295 10292 10289 10286 10283 10280 10278 10275 10272 10269 10265 10262 10260 10257 10255 10252 10250 10247 10244 10240 10237 10234 10230 10227 10223 10219 10215 10210 10206 10202 10198 10194 10190 10185 10181 10177 10173 10168 10163 10157 10151 10146 10142 10138 10134 10129 10124 10119 10115 10111 10109 10106 10102 10099 10096 10093 10090 10087 10084 10080 10078 10075 10073 10071 10069 10067 10066 10065 10065 10064 10063
10319 10317 10315 10314 10312 10310 10309 10307 10305 10304 10301 10299 10297 10294 10291 10289 10285 10282 10279 10276 10274 10271 10269 10266 10263 10259 10255 10252 10250 10248 10245 10242 10239 10236 10233 10230 10226 10223 10219 10216 10212 10208 10204 10199 10195 10190 10186 10182 10177 10173 10169 10164 10160 10154 10149 10143 10138 10134 10130 10126 10122 10117 10112 10108 10104 10101 10098 10095 10092 10089 10086 10083 10079 10076 10073 10070 10067 10065 10064 10062 10060 10059 10059 10057 10057 10055
10314 10312 10310 10309 10307 10305 10303 10301 10299 10297 10295 10293 10290 10288 10285 10283 10280 10277 10274 10270 10267 10265 10262 10259 10256 10253 10249 10245 10242 10239 10237 10234 10231 10228 10225 10222 10219 10215 10212 10209 10205 10200 10197 10192 10187 10182 10178 10174 10170 10165 10161 10156 10151 10146 10140 10135 10130 10125 10121 10118 10114 10110 10105 10101 10097 10094 10090 10087 10084 10082 10079 10076 10073 10069 10066 10063 10060 10058 10057 10055 10054 10053 10052 10051 10050 10049
10308 10306 10304 10303 10301 10299 10297 10295 10294 10292 10289 10287 10284 10282 10279 10277 10274 10271 10268 10264 10262 10259 10256 10253 10250 10247 10243 10239 10235 10232 10228 10225 10222 10219 10217 10214 10210 10207 10204 10200 10197 10193 10189 10185 10180 10175 10170 10165 10161 10157 10153 10148 10143 10138 10133 10128 10123 10118 10114 10110 10107 10103 10099 10095 10091 10087 10084 10080 10077 10075 10072 10069 10067 10063 10060 10057 10054 10052 10050 10049 10047 10046 10045 10044 10043 10041
10302 10300 10299 10297 10295 10294 10291 10289 10287 10285 10284 10281 10279 10276 10273 10270 10268 10265 10262 10259 10255 10252 10250 10247 10244 10240 10237 10233 10229 10225 10220 10217 10214 10210 10208 10205 10203 10200 10196 10192 10189 10185 10180 10177 10172 10168 10164 10159 10154 10149 10145 10140 10135 10130 10125 10121 10116 10112 10107 10103 10099 10096 10092 10089 10085 10082 10079 10075 10071 10069 10066 10063 10060 10057 10054 10050 10047 10045 10044 10042 10041 10040 10039 10037 10036 10034
10297 10295 10293 10292 10290 10288 10285 10284 10282 10280 10277 10275 10273 10270 10267 10265 10262 10259 10256 10253 10250 10247 10244 10241 10238 10235 10230 10227 10223 10219 10214 10210 10206 10203 10200 10197 10194 10191 10188 10184 10180 10177 10172 10168 10164 10159 10155 10151 10147 10143 10138 10133 10127 10122 10118 10114 10110 10105 10100 10097 10093 10089 10085 10082 10079 10076 10073 10070 10066 10063 10060 10058 10055 10052 10048 10045 10042 10039 10037 10036 10035 10034 10033 10031 10029 10027
10291 10290 10288 10286 10284 10282 10280 10279 10277 10274 10272 10269 10267 10264 10262 10259 10256 10253 10250 10247 10244 10241 10237 10234 10232 10229 10225 10221 10217 10213 10209 10204 10200 10196 10193 10190 10187 10183 10180 10176 10172 10168 10164 10159 10155 10150 10146 10143 10139 10136 10132 10127 10121 10115 10110 10107 10103 10099 10095 10091 10087 10083 10079 10075 10073 10070 10067 10064 10061 10058 10055 10053 10050 10047 10044 10040 10037 10034 10032 10030 10030 10029 10027 10025 10024 10022
10286 10284 10282 10281 10279 10277 10275 10273 10271 10269 10266 10264 10261 10259 10255 10253 10250 10247 10244 10240 10238 10235 10232 10229 10225 10222 10218 10214 10210 10207 10203 10199 10195 10190 10187 10184 10180 10175 10172 10168 10164 10160 10155 10151 10147 10142 10138 10134 10131 10129 10125 10121 10115 10110 10104 10100 10096 10092 10089 10085 10081 10077 10074 10070 10067 10064 10061 10059 10056 10053 10050 10048 10045 10042 10039 10035 10032 10029 10027 10025 10024 10024 10022 10020 10019 10017
10281 10279 10277 10275 10274 10272 10270 10268 10265 10263 10260 10257 10255 10252 10249 10247 10244 10242 10238 10235 10232 10229 10226 10222 10219 10215 10211 10207 10204 10200 10197 10194 10189 10185 10182 10178 10174 10169 10165 10161 10157 10152 10147 10142 10139 10134 10130 10126 10123 10120 10118 10115 10110 10105 10099 10094 10089 10085 10082 10079 10075 10072 10068 10064 10060 10058 10055 10052 10050 10047 10045 10042 10040 10037 10034 10031 10027 10025 10023 10021 10019 10019 10017 10016 10014 10012
10276 10274 10272 10270 10269 10267 10264 10262 10260 10257 10255 10252 10249 10246 10243 10240 10238 10235 10232 10229 10226 10223 10220 10217 10213 10209 10205 10201 10197 10194 10191 10187 10184 10180 10175 10172 10168 10164 10159 10154 10150 10145 10140 10135 10130 10127 10122 10118 10114 10112 10110 10109 10105 10100 10095 10089 10084 10079 10075 10072 10069 10066 10062 10059 10055 10052 10049 10047 10044 10042 10039 10037 10034 10032 10030 10027 10024 10020 10018 10016 10014 10014 10013 10012 10010 10008
10271 10269 10267 10265 10264 10262 10259 10257 10255 10252 10249 10246 10243 10240 10237 10235 10232 10229 10226 10224 10220 10217 10214 10210 10207 10203 10199 10195 10191 10188 10185 10182 10179 10174 10170 10165 10162 10157 10153 10149 10144 10139 10135 10129 10124 10119 10115 10111 10107 10103 10101 10100 10099 10095 10091 10085 10080 10075 10070 10066 10063 10060 10057 10054 10050 10047 10044 10041 10039 10036 10034 10031 10029 10027 10024 10022 10019 10016 10014 10011 10010 10009 10008 10007 10005 10004